Torna al catalogo

CZ-6A DEB

AttivoPO
NORAD 58202·DEBRIS·🇨🇳 China

Lanciato Oct 31, 2023 da Taiyuan Satellite Launch Center

Loading…

Prossimi Passaggi (prossime 24 ore)

TLE

AggiornatoSource: Space-Track

Epoca: Sep 14, 2026, 01:53 UTC

1 58202U 23168D   26257.07907047  .00045871  00000-0  10424-2 0  9991
2 58202  97.7580 296.7817 0000395 142.5146 217.6128 15.42875716158114

Traccia CZ-6A DEB in tempo reale con AllMySat

Download on the App Store